Regional Weather Roundup
Issued by NWS Sterling, VA

Home | Current Version | Previous Version | Graphics & Text | Print | Product List | Glossary On
Versions: 1 2 3 4 5 6 7 8 9 10 11 12 13 14 15 16 17 18 19 20 21 22 23 24 25 26 27 28 29 30 31 32 33 34 35 36 37 38 39 40 41 42 43 44 45 46 47 48 49 50
000
ASUS41 KLWX 261110
RWRLWX

REGIONAL WEATHER ROUNDUP
NATIONAL WEATHER SERVICE BALTIMORE MD/WASHINGTON DC
700 AM EDT THU MAR 26 2015

Note: "FAIR" indicates few or no clouds below 12,000 feet
with no significant weather and/or obstructions to visibility.
 TC=TEMPERATURE CELSIUS

 * =Non NWS site. Station does not report precipitation (e.g. rain,
    snow, etc.), thunder, or fog.

DCZ001-MDZ009-015-VAZ040>042-051-053>054-261200-
WASHINGTON METRO

CITY           SKY/WX    TMP DP  RH WIND       PRES   REMARKS
WASHINGTON NAT CLOUDY    52  40  63 S10       29.98F
DULLES         MOCLDY    53  43  68 S10       29.95F
ANDREWS AFB    CLOUDY    50  41  71 S9        29.97F
FT BELVOIR     CLOUDY    48  41  76 E5        29.98F
QUANTICO       CLOUDY    50  42  74 S14       30.00F
COLLEGE PARK*  CLOUDY    52  39  62 CALM      29.97F
LEESBURG*      PTCLDY    39  37  93 S5        29.95F
MANASSAS*      CLOUDY    54  45  71 S3        29.96F
GAITHERSBURG*  MOCLDY    45  37  76 SE6       29.99F

$$

MDZ006>007-011-014-261200-
BALTIMORE METRO

CITY           SKY/WX    TMP DP  RH WIND       PRES   REMARKS
BWI AIRPORT    CLOUDY    44  38  79 CALM      29.97F
MD SCIENCE CTR   N/A     45  39  79 MISG      29.99F
ANNAPOLIS      CLOUDY    46  39  76 S7        29.98F

$$

MDZ012-015-019>023-261200-
MARYLAND EASTERN SHORE

CITY           SKY/WX    TMP DP  RH WIND       PRES   REMARKS
OCEAN CITY     CLOUDY    51  50  96 SW10      30.04S
SALISBURY      LGT RAIN N/A N/A N/A CALM      30.02S
BAY BRIDGE AP*   N/A     45  41  87 SE8       29.99F
CAMBRIDGE*     CLOUDY    52  48  87 S3        30.01S
EASTON*        CLOUDY    48  48 100 S3        30.03F

$$

MDZ017>025-261200-
SOUTHERN MARYLAND

CITY           SKY/WX    TMP DP  RH WIND       PRES   REMARKS
PATUXENT RIVER CLOUDY    48  42  80 CALM      30.01S
ST INIGOES     CLOUDY    48  44  86 CALM      30.01S
LEONARDTOWN*   CLOUDY    48  39  71 CALM      30.02S

$$

MDZ003>005-261200-
NORTH CENTRAL MARYLAND

CITY           SKY/WX    TMP DP  RH WIND       PRES   REMARKS
FREDERICK*     CLEAR     36  32  87 CALM      29.97F
HAGERSTOWN APT CLEAR     33  30  88 NW5       29.91F FOG
WESTMINSTER*   PTCLDY    39  36  87 SE6       29.93F

$$

MDZ501>502-261200-
WESTERN MARYLAND

CITY           SKY/WX    TMP DP  RH WIND       PRES   REMARKS
OAKLAND*       PTCLDY    48 N/A N/A S12       29.86F
CUMBERLAND*    PTCLDY    37  36  93 CALM      29.94F

$$

VAZ025>031-261200-
SHENANDOAH VALLEY

CITY           SKY/WX    TMP DP  RH WIND       PRES   REMARKS
WINCHESTER*    CLEAR     37  34  87 CALM      29.91F FOG
FRONT ROYAL*   FAIR      54  50  87 S7        29.90F
LURAY*         CLOUDY    55  52  88 SW3       29.93F
NEW MARKET*    PTSUNNY   52  48  86 SW7       29.91F
STAUNTON*      CLOUDY    52  48  84 S5        29.96F
WAYNESBORO*    CLOUDY    46  46  99 CALM      29.95F

$$

WVZ021-048>050-054>055-261200-
EASTERN WEST VIRGINIA PANHANDLE

CITY           SKY/WX    TMP DP  RH WIND       PRES   REMARKS
MARTINSBURG    CLEAR     37  32  82 N3        29.92F
PETERSBURG*    CLEAR     41  40  97 CALM      29.90F

$$

VAZ036>039-050-261200-
CENTRAL FOOTHILLS

CITY           SKY/WX    TMP DP  RH WIND       PRES   REMARKS
CHARLOTTESVILL CLOUDY    51  44  77 S6        29.96F
CULPEPER*      CLOUDY    54  45  71 S5        29.97F
ORANGE*        LGT RAIN  50  43  76 CALM      29.98F
GORDONSVILLE*  CLOUDY    49  42  77 CALM      29.97F
WARRENTON*     CLOUDY    55  49  80 S6        29.96F

$$

VAZ055>057-261200-
NORTH AND CENTRAL PIEDMONT

CITY           SKY/WX    TMP DP  RH WIND       PRES   REMARKS
FREDERICKSBRG* CLOUDY    51  42  70 SE6       29.98F
STAFFORD*      CLOUDY    49  38  67 CALM      30.02F

$$

NCZ024-NYZ072-PAZ021-071-VAZ022-071-261200-
OTHER REGIONAL OBSERVATIONS

CITY           SKY/WX    TMP DP  RH WIND       PRES   REMARKS
NEW YORK CITY  CLOUDY    46  41  82 CALM      30.02S
PHILADELPHIA   MOCLDY    40  39  97 CALM      30.00F FOG
PITTSBURGH     MOCLDY    45  44  97 E3        29.81F
ROANOKE        CLOUDY    49  43  80 S3        29.98F
RICHMOND       CLOUDY    53  46  77 CALM      29.99F
RALEIGH        CLOUDY    63  61  93 S10       29.98F

$$

ANZ530>537-261200-
MARINE OBSERVATIONS

STATION/POSITION TIME  TEMP    WIND        PRES
                       AIR SEA DIR/SP/G
                 (UTC) (F)     (DEG/KT/KT) (MB)
THOMAS PT LIGHT  1100                        N/A
BALT KEY BRIDGE  1000   42                 1015.6F
COVE POINT       1000   43                 1016.4F
LEWISETTA        1000   47 45              1016.1F
SOLOMONS ISLAND  1000      40                N/A
PINEY POINT      1006           80/  3/  4   N/A

$$



USA.gov is the U.S. government's official web portal to all federal, state and local government web resources and services.